Home > Weather > Melk > Past weeks

Flag for Austria Weather for the Past 2 Weeks in Melk, Lower Austria, Austria

Now
30 °F

Chilly.


Feels Like: 30 °F
Forecast: 31 / 48 °F
Wind: 2 mph from East

Location: Amstetten

Current Time: Feb 14, 2016 at 5:43:57 AM

Latest Report: Feb 14, 2016 at 4:00 AM


Visibility: N/A

Pressure: 29.32 "Hg

Humidity: 100%

Dew point: 30 °F

Location of MelkLocation

Historic Weather in Melk — Graph

°F

Melk Temperature Yesterday

Maximum temperature yesterday: 45 °F (at 3:00 PM)
Minimum temperature yesterday: 30 °F (at 2:00 AM)
Average temperature yesterday: 37 °F

High & Low Weather Summary for the Past Weeks

 TemperatureHumidityPressure
High57 °F (Feb 9, 3:00 PM)100% (Jan 30, 2:00 AM)30.43 "Hg (Jan 30, 2:00 AM)
Low24 °F (Feb 12, 7:00 AM)55% (Feb 9, 5:00 PM)29.26 "Hg (Feb 9, 9:00 PM)
Average40 °F85%29.92 "Hg
* Reported Jan 30 2:00 AM — Feb 14 2:00 AM, Melk, Weather by CustomWeather, © 2016

Note: Actual official high and low records may vary slightly from our data, if they occured in-between our weather recording intervals... More about our weather records

Advertising

Melk Weather History for the Previous 24 Hours

 ConditionsComfort  
Time TempWeatherWind HumidityBarometerVisibility
2:00 AM
Sun, Feb 14
32 °FChilly.1 mph100%29.32 "HgN/A
1:00 AM31 °FChilly.2 mph98%29.32 "HgN/A
9:00 PM
Sat, Feb 13
37 °FChilly.1 mph91%29.29 "HgN/A
8:00 PM38 °FChilly.1 mph89%29.32 "HgN/A
7:00 PM36 °FChilly.1 mph89%29.32 "HgN/A
6:00 PM39 °FChilly.1 mph84%29.32 "HgN/A
5:00 PM43 °FQuite cool.1 mph75%29.32 "HgN/A
4:00 PM44 °FQuite cool.1 mph70%29.35 "HgN/A
3:00 PM45 °FCool.2 mph69%29.35 "HgN/A
2:00 PM43 °FQuite cool.2 mph72%29.38 "HgN/A
1:00 PM41 °FQuite cool.2 mph76%29.41 "HgN/A
12:00 PM38 °FChilly.2 mph80%29.44 "HgN/A
11:00 AM36 °FChilly.2 mph84%29.44 "HgN/A
10:00 AM35 °FChilly.1 mph89%29.44 "HgN/A
9:00 AM32 °FChilly.1 mph97%29.44 "HgN/A
8:00 AM31 °FChilly.1 mph97%29.44 "HgN/A
7:00 AM31 °FChilly.1 mph99%29.44 "HgN/A
6:00 AM32 °FChilly.No wind96%29.44 "HgN/A
5:00 AM32 °FChilly.1 mph96%29.44 "HgN/A
Weather by CustomWeather, © 2016

See weather overviewHow to use our weather pages